Regional Weather Roundup
Issued by NWS

Home | Current Version | Previous Version | Text Only | Print | Product List | Glossary Off
Versions: 1 2 3 4 5 6 7 8 9 10 11 12 13 14 15 16 17 18 19 20 21 22 23 24 25 26 27 28 29 30 31 32 33 34 35 36 37 38 39 40 41 42 43 44 45 46 47 48 49 50

000
ASUS43 KMKX 240411
RWRWI

WISCONSIN REGIONAL WEATHER ROUNDUP
NATIONAL WEATHER SERVICE MILWAUKEE/SULLIVAN WI
1100 PM CDT TUE MAY 23 2017

NOTE: "FAIR" INDICATES FEW OR NO CLOUDS BELOW 12,000 FEET WITH NO
SIGNIFICANT WEATHER AND/OR OBSTRUCTIONS TO VISIBILITY.

WIZ001-002-006>008-014>016-023>028-240500-
NORTHWEST WISCONSIN

CITY           SKY/WX    TMP DP  RH WIND       PRES   REMARKS
SUPERIOR ARPT  NOT AVBL
ASHLAND        CLOUDY    45  43  93 NE5       29.89S
HAYWARD        MOCLDY    47  41  80 NE10      29.86S
SIREN          CLOUDY    49  43  79 CALM      29.87F
CUMBERLAND     CLOUDY    45  41  87 N8        29.84F
RICE LAKE      CLOUDY    48  43  83 N10       29.85S
CHETEK         CLOUDY    49  45  85 N6        29.82S
LADYSMITH      CLOUDY    48  44  85 N12       29.83S
EAU CLAIRE     CLOUDY    53  44  71 N5        29.78S
MENOMONIE      CLOUDY    53  44  70 N10       29.80S
NEW RICHMOND   CLOUDY    50  43  75 N12       29.83F
OSCEOLA        PTCLDY    51  44  78 N8        29.87S
$$

WIZ003>005-009-010-017-018-240500-
NORTH CENTRAL WISCONSIN

CITY           SKY/WX    TMP DP  RH WIND       PRES   REMARKS
MANITOWISH WTR CLOUDY    47  46  99 NE6       29.82F
ARBOR VITAE    CLOUDY    52  47  85 N6        29.81S
WOODRUFF       CLOUDY    52  47  85 N6        29.81S
RHINELANDER    CLOUDY    51  45  79 NE6       29.81S
EAGLE RIVER    MOCLDY    47  42  80 NE10      29.81F
LAND O LAKES   CLOUDY    47  43  87 NE7       29.84S
PHILLIPS       CLOUDY    49  44  83 NE10      29.81S
TOMAHAWK       CLOUDY    49  44  80 NE6       29.80F
MEDFORD        CLOUDY    50  44  79 NE7       29.78F
MERRILL        LGT RAIN  51  48  90 N5        29.79S
$$

WIZ029-030-035-036-043>047-240500-
CENTRAL WISCONSIN

CITY           SKY/WX    TMP DP  RH WIND       PRES   REMARKS
WAUSAU         LGT RAIN  50  49  96 CALM      29.76F
MOSINEE        LGT RAIN  48  46  93 NE5       29.78F
MARSHFIELD     LGT RAIN  49  45  86 E6        29.77S
STEVENS POINT  LGT RAIN  47  47  99 NE7       29.76F
WAUPACA        LGT RAIN  51  49  93 CALM      29.76F
WAUTOMA        CLOUDY    48  46  93 NE7       29.75S
WISC RAPIDS    CLOUDY    50  47  89 NE7       29.77F
CAMP DOUGLAS   CLOUDY    50  48  93 NE7       29.75S
$$

WIZ011>013-019>022-031-037>040-048>050-240500-
NORTHEAST WISCONSIN

CITY           SKY/WX    TMP DP  RH WIND       PRES   REMARKS
ANTIGO         LGT RAIN  49  47  92 E7        29.79S
SHAWANO        LGT RAIN  53  50  90 NE6       29.77F
OCONTO         CLOUDY    50  49  95 NE5       29.76F
STURGEON BAY   LGT RAIN  49  47  93 N10       29.77S
GREEN BAY      LGT RAIN  51  50  96 NE17      29.75F
MANITOWOC      LGT RAIN  50  47  89 N7        29.74F
APPLETON       DRIZZLE   48  48 100 NE9       29.73F
CLINTONVILLE   RAIN      50  48  93 NE6       29.76F
OSHKOSH        CLOUDY    51  48  89 NE14      29.73F
$$

WIZ032>034-041-042-053>061-240500-
SOUTHWEST WISCONSIN

CITY           SKY/WX    TMP DP  RH WIND       PRES   REMARKS
LA CROSSE      LGT RAIN  53  50  89 N6        29.75R
SPARTA         DRIZZLE   49  48  99 NE8       29.76S
VIROQUA        CLOUDY    51  49  95 MISG      29.73S
BOSCOBEL       CLOUDY    54  51  90 VRB3      29.71F
PRAIRIE DU CHI CLOUDY    54  49  81 CALM      29.71S
PLATTEVILLE    CLOUDY    54  54 100 N6        29.70S
$$

WIZ056-057-062-063-064-067-068-240500-
SOUTH CENTRAL WISCONSIN

CITY           SKY/WX    TMP DP  RH WIND       PRES   REMARKS
REEDSBURG      CLOUDY    50  50 100 NE7       29.72F
BARABOO/DELLS  CLOUDY    50  48  93 NE8       29.73S
LONE ROCK      CLOUDY    53  50  89 E3        29.71S
MINERAL POINT  PTCLDY    52  52 100 NE5       29.69F
MADISON        CLOUDY    53  51  93 NE9       29.70S
MIDDLETON      CLOUDY    54  54 100 NE14      29.70F
WATERTOWN      CLOUDY    51  51 100 NE8       29.70F
MONROE         FOG       50  50 100 E5        29.69S VSB 1/4
JANESVILLE     MOCLDY    52  52 100 CALM      29.69F FOG
$$

WIZ051-052-058>065-066-070>072-240500-
SOUTHEAST WISCONSIN

CITY           SKY/WX    TMP DP  RH WIND       PRES   REMARKS
MILWAUKEE      FOG       47  47 100 N5        29.71S VSB 1/2
WAUKESHA       CLOUDY    46  46 100 E5        29.72S FOG
MILWAUKEE/TIMM   N/A     46  45  93 NE3       29.72F FOG
RACINE         CLOUDY    48  46  93 N7        29.72F FOG
KENOSHA        CLOUDY    53  51  93 NE5       29.69F
FOND DU LAC    CLOUDY    50  46  86 NE12      29.73F
SHEBOYGAN      CLOUDY    49  48  97 NE12      29.72F
WEST BEND      CLOUDY    46  46 100 N6        29.71F
JUNEAU         CLOUDY    49  47  94 N8        29.72F
$$

LSZ147-162-240500-
LAKE SUPERIOR

STATION/POSITION TIME  TEMP    WIND        PRES    WAVE
                       AIR SEA DIR/SP/G            HT/PER
                 (UTC) (F)     (DEG/KT/KT) (MB)    (FT/S)
W MID LAKE BUOY  0350   40 37  340/  6/  8 1012.5F   0
DEVILS ISLAND    0400   45     360/  9/  9 1012.7F
PORT WING        0140   41      20/  9/ 10 1012.5
SAXON HARBOR     0340   42     330/  4/  5 1011.9S
$$

LMZ867-665-643>646-240500-
LAKE MICHIGAN

STATION/POSITION TIME  TEMP    WIND        PRES    WAVE
                       AIR SEA DIR/SP/G            HT/PER
                 (UTC) (F)     (DEG/KT/KT) (MB)    (FT/S)
CHAMBERS ISLAND  0340   48      10/ 11/ 14 1008.5S
N MID LAKE BUOY  0350   44 39   30/ 10/ 10 1009.2R   0
NORTHPORT PIER   0340   48      10/ 11/ 14 1008.8S
KEWAUNEE LAKESHO 0342   50      10/  7/ 11 1006.9F
SHEBOYGAN LAKESH 0400   46      20/ 14/ 16 1006.6F
PORT WASHINGTON  0340   47      50/  6/ 10 1007.5S
ATWATER BUOY     0309   45      10/ 10/ 12 1006.6F
MILWAUKEE LAKESH 0350   45     350/  8/ 10   N/A
S MID LAKE BUOY  0350   50 45   30/  4/  6 1006.2F   0
KENOSHA   LAKESH 0400   50      20/  8/  9 1005.8
$$

TC  - TEMPERATURE IN CELSIUS
VSB - VISIBILITY IN STATUTE MILES
WCI - WIND CHILL INDEX
HX  - HEAT INDEX





USA.gov is the U.S. government's official web portal to all federal, state and local government web resources and services.